Simultaneous Nadir Overpasses (SNOs) Predictions

Prediction of SNOs between GOES-16 and NPP Satellite Orbit:

Table of predicted SNOs for the next 14.0 days since TLE Epoch: 4/23/2022
Index Date Time (GOES-16) GOES-16 Lat,Lon NPP Lat,Lon Distance(km) Time Diff (sec)
1 04/23/2022 18:32:58 0.03, -75.22 -0.41, -77.21 226.27 80
2 04/24/2022 18:16:52 0.03, -75.22 0.59, -72.67 290.15 80
3 04/26/2022 06:38:39 -0.03, -75.21 0.56, -77.94 310.55 80
4 04/27/2022 06:17:14 -0.03, -75.21 -0.44, -73.40 206.31 80
5 04/28/2022 18:39:09 0.02, -75.23 -0.75, -78.70 396.11 80
6 04/29/2022 18:23:04 0.03, -75.23 0.25, -74.16 121.34 80
7 05/01/2022 06:44:51 -0.02, -75.24 0.89, -79.44 477.81 80
8 05/02/2022 06:23:26 -0.03, -75.25 -0.11, -74.90 39.70 80
9 05/04/2022 18:26:35 0.02, -75.28 -0.07, -75.67 44.21 80
10 05/05/2022 18:10:30 0.02, -75.29 0.94, -71.13 473.85 80
